Weather History for Alpine, TX

Change the Weather History Date:

Wednesday, September 25, 2013

  Actual Average (KMRF) Record (KMRF)
Temperature  
Mean Temperature 70 °F -  
Max Temperature 88 °F 79 °F 93 °F (2005)
Min Temperature 52 °F 50 °F 44 °F (2000)
Cooling Degree Days 4    
Growing Degree Days 20 (Base 50)    
Moisture  
Dew Point 43 °F    
Average Humidity 42    
Maximum Humidity 72    
Minimum Humidity 16    
Precipitation  
Precipitation 0.00 in - - ()
Sea Level Pressure  
Sea Level Pressure 30.06 in    
Wind  
Wind Speed 7 mph (SW)    
Max Wind Speed 14 mph    
Max Gust Speed 20 mph    
Visibility 10 miles    
Events      
Averages and records for this station are not official NWS values.
T = Trace of Precipitation, MM = Missing Value Source: NWS Daily Summary

Daily Weather History Graph

Daily Weather History Graph

Search for Another Location

Airport:

Trip Planner

Search our weather history database for the weather conditions in past years. The results will help you decide how hot, cold, wet, or windy it might be!

Date:

Astronomy

Sep. 25, 2013 Rise Set
Actual Time 7:44 AM CDT 7:47 PM CDT
Civil Twilight 7:20 AM CDT 8:11 PM CDT
Nautical Twilight 6:53 AM CDT 8:38 PM CDT
Astronomical Twilight 6:24 AM CDT 9:06 PM CDT
Moon No Moon Rise 1:31 PM CDT (9/25)
Length of Visible Light 12h 50m
Length of Day
12h 02m
Waning Gibbous, 64% of the Moon is Illuminated
Sep 25
Waning Gibbous
Sep 26
Last Quarter
Oct 4
New
Oct 11
First Quarter
Oct 18
Full

Hourly Weather History & Observations

Time (CDT) Temp. Dew Point Humidity Pressure Visibility Wind Dir Wind Speed Gust Speed Precip Events Conditions
12:15 AM 55.4 °F 43.7 °F 65% 30.16 in 10.0 mi SW 4.6 mph - N/A   Clear
12:35 AM 55.0 °F 43.0 °F 64% 30.16 in 10.0 mi WSW 6.9 mph - N/A   Clear
12:55 AM 54.7 °F 43.2 °F 65% 30.15 in 10.0 mi WSW 9.2 mph - N/A   Clear
1:15 AM 52.5 °F 43.9 °F 72% 30.15 in 10.0 mi WSW 6.9 mph - N/A   Clear
1:35 AM 52.3 °F 43.0 °F 70% 30.15 in 10.0 mi SW 5.8 mph - N/A   Clear
1:55 AM 52.7 °F 42.8 °F 69% 30.14 in 10.0 mi SW 5.8 mph - N/A   Clear
2:15 AM 54.0 °F 42.6 °F 65% 30.14 in 10.0 mi WSW 8.1 mph - N/A   Clear
2:35 AM 54.9 °F 41.9 °F 62% 30.13 in 10.0 mi WSW 9.2 mph - N/A   Clear
2:55 AM 55.0 °F 41.7 °F 61% 30.13 in 10.0 mi WSW 6.9 mph - N/A   Clear
3:15 AM 54.1 °F 41.9 °F 63% 30.12 in 10.0 mi WSW 6.9 mph - N/A   Clear
3:35 AM 54.0 °F 41.7 °F 63% 30.12 in 10.0 mi WSW 6.9 mph - N/A   Clear
3:55 AM 54.7 °F 41.4 °F 61% 30.11 in 10.0 mi West 5.8 mph - N/A   Clear
4:15 AM 54.1 °F 41.5 °F 62% 30.11 in 10.0 mi West 6.9 mph - N/A   Clear
4:35 AM 53.8 °F 41.4 °F 63% 30.11 in 10.0 mi West 5.8 mph - N/A   Clear
4:55 AM 54.5 °F 41.4 °F 61% 30.10 in 10.0 mi West 8.1 mph - N/A   Clear
5:15 AM 54.7 °F 41.4 °F 61% 30.10 in 10.0 mi West 8.1 mph - N/A   Clear
5:35 AM 54.5 °F 41.4 °F 61% 30.10 in 10.0 mi West 8.1 mph - N/A   Clear
5:55 AM 54.7 °F 41.4 °F 61% 30.10 in 10.0 mi West 6.9 mph - N/A   Clear
6:15 AM 55.8 °F 41.2 °F 58% 30.10 in 10.0 mi West 8.1 mph - N/A   Clear
6:35 AM 55.0 °F 41.4 °F 60% 30.11 in 10.0 mi WSW 6.9 mph - N/A   Clear
6:55 AM 52.9 °F 42.8 °F 69% 30.10 in 10.0 mi WSW 6.9 mph - N/A   Clear
7:15 AM 53.6 °F 43.0 °F 67% 30.11 in 10.0 mi WSW 8.1 mph - N/A   Clear
7:35 AM 53.6 °F 42.8 °F 67% 30.10 in 10.0 mi WSW 6.9 mph - N/A   Clear
7:55 AM 55.6 °F 42.4 °F 61% 30.11 in 10.0 mi WSW 10.4 mph - N/A   Clear
8:15 AM 58.1 °F 42.6 °F 56% 30.11 in 10.0 mi WSW 8.1 mph - N/A   Clear
8:35 AM 60.8 °F 44.1 °F 54% 30.11 in 10.0 mi SW 6.9 mph - N/A   Clear
8:55 AM 65.8 °F 45.3 °F 47% 30.11 in 10.0 mi SW 8.1 mph - N/A   Clear
9:15 AM 68.7 °F 48.2 °F 48% 30.11 in 10.0 mi WSW 5.8 mph - N/A   Clear
9:35 AM 72.3 °F 51.3 °F 47% 30.11 in 10.0 mi SW 8.1 mph - N/A   Clear
9:55 AM 74.3 °F 51.4 °F 45% 30.11 in 10.0 mi SSW 8.1 mph - N/A   Clear
10:15 AM 75.6 °F 49.8 °F 40% 30.12 in 10.0 mi SW 10.4 mph - N/A   Scattered Clouds
10:35 AM 77.2 °F 50.4 °F 39% 30.12 in 10.0 mi SSW 9.2 mph - N/A   Clear
10:55 AM 78.4 °F 51.3 °F 39% 30.12 in 10.0 mi South 9.2 mph - N/A   Clear
11:15 AM 80.1 °F 47.5 °F 32% 30.11 in 10.0 mi SW 12.7 mph 16.1 mph N/A   Clear
11:35 AM 81.1 °F 44.6 °F 28% 30.11 in 10.0 mi SW 12.7 mph - N/A   Clear
11:55 AM 82.2 °F 43.7 °F 26% 30.11 in 10.0 mi SW 11.5 mph 17.3 mph N/A   Clear
12:15 PM 82.2 °F 42.1 °F 24% 30.09 in 10.0 mi SW 8.1 mph 12.7 mph N/A   Clear
12:35 PM 82.8 °F 41.4 °F 23% 30.09 in 10.0 mi SSW 8.1 mph - N/A   Clear
1:15 PM 84.2 °F 41.9 °F 22% 30.08 in 10.0 mi West 6.9 mph - N/A   Clear
1:55 PM 85.1 °F 42.8 °F 23% 30.06 in 10.0 mi SW 8.1 mph - N/A   Clear
2:15 PM 84.9 °F 41.4 °F 21% 30.05 in 10.0 mi SW 12.7 mph 16.1 mph N/A   Clear
2:35 PM 85.5 °F 42.1 °F 22% 30.04 in 10.0 mi Calm Calm - N/A   Clear
2:55 PM 86.2 °F 40.5 °F 20% 30.03 in 10.0 mi WNW 8.1 mph - N/A   Clear
3:15 PM 86.5 °F 40.5 °F 20% 30.03 in 10.0 mi WSW 8.1 mph - N/A   Clear
3:35 PM 87.1 °F 40.5 °F 19% 30.01 in 10.0 mi WSW 10.4 mph - N/A   Clear
3:55 PM 86.5 °F 38.7 °F 18% 30.01 in 10.0 mi WSW 4.6 mph - N/A   Clear
4:15 PM 87.3 °F 38.7 °F 18% 30.00 in 10.0 mi SW 10.4 mph - N/A   Clear
4:35 PM 87.3 °F 38.8 °F 18% 30.00 in 10.0 mi WSW 8.1 mph - N/A   Clear
4:55 PM 87.4 °F 39.6 °F 18% 29.99 in 10.0 mi SSE 3.5 mph - N/A   Clear
5:15 PM 87.8 °F 38.7 °F 18% 29.99 in 10.0 mi SSW 5.8 mph - N/A   Clear
5:35 PM 87.1 °F 35.8 °F 16% 29.98 in 10.0 mi Calm Calm - N/A   Clear
5:55 PM 87.3 °F 36.7 °F 17% 29.98 in 10.0 mi Calm Calm - N/A   Clear
6:15 PM 87.1 °F 36.9 °F 17% 29.97 in 10.0 mi SW 5.8 mph - N/A   Clear
6:35 PM 86.5 °F 41.2 °F 20% 29.97 in 10.0 mi SSW 8.1 mph - N/A   Clear
6:55 PM 85.3 °F 42.4 °F 22% 29.97 in 10.0 mi SSW 5.8 mph - N/A   Clear
7:15 PM 83.1 °F 43.7 °F 25% 29.97 in 10.0 mi South 6.9 mph - N/A   Clear
7:35 PM 79.3 °F 44.1 °F 29% 29.97 in 10.0 mi South 6.9 mph - N/A   Clear
7:55 PM 77.2 °F 43.5 °F 30% 29.97 in 10.0 mi South 6.9 mph - N/A   Clear
8:15 PM 75.0 °F 41.7 °F 30% 29.98 in 10.0 mi SSW 6.9 mph - N/A   Clear
8:35 PM 73.6 °F 42.3 °F 32% 29.98 in 10.0 mi South 8.1 mph - N/A   Clear
8:55 PM 74.7 °F 43.2 °F 32% 29.99 in 10.0 mi South 6.9 mph - N/A   Clear
9:15 PM 74.8 °F 42.6 °F 31% 29.99 in 10.0 mi SW 6.9 mph - N/A   Clear
9:35 PM 70.7 °F 43.9 °F 38% 29.99 in 10.0 mi SSW 4.6 mph - N/A   Clear
9:55 PM 73.9 °F 43.3 °F 33% 30.00 in 10.0 mi South 6.9 mph - N/A   Clear
10:15 PM 74.3 °F 43.2 °F 33% 30.00 in 10.0 mi South 10.4 mph - N/A   Clear
10:35 PM 74.8 °F 43.2 °F 32% 30.00 in 10.0 mi SSE 12.7 mph 19.6 mph N/A   Clear
10:55 PM 73.4 °F 45.9 °F 37% 30.00 in 10.0 mi SSE 13.8 mph 17.3 mph N/A   Clear
11:15 PM 72.1 °F 49.3 °F 44% 30.00 in 10.0 mi SSW 6.9 mph 16.1 mph N/A   Clear
11:35 PM 70.7 °F 50.9 °F 49% 30.01 in 10.0 mi SSW 6.9 mph - N/A   Clear
11:55 PM 69.8 °F 51.8 °F 53% 30.00 in 10.0 mi South 6.9 mph - N/A   Clear